Weather History for Grand Forks, ND

Change the Weather History Date:

Thursday, February 7, 2013

  Actual Average Record
Temperature  
Mean Temperature 4 °F 9 °F  
Max Temperature 11 °F 20 °F 55 °F (1991)
Min Temperature -3 °F -1 °F -29 °F (1994)
Degree Days  
Heating Degree Days 61 56  
Month to date heating degree days 421 395  
Since 1 July heating degree days 5913 6061  
Cooling Degree Days 0 0  
Month to date cooling degree days 0 0  
Year to date cooling degree days 0 0  
Moisture  
Dew Point 1 °F    
Average Humidity 84    
Maximum Humidity 91    
Minimum Humidity 76    
Precipitation  
Precipitation T in 0.01 in 0.22 in (1981)
Month to date precipitation 0.22 0.10  
Year to date precipitation 0.64 0.65  
Snow  
Snow T in 0.20 in - ()
Month to date snowfall 4.3 1.6  
Since 1 July snowfall 23.4 32.2  
Snow Depth 6.00 in    
Sea Level Pressure  
Sea Level Pressure 30.29 in    
Wind  
Wind Speed 6 mph (North)    
Max Wind Speed 15 mph    
Max Gust Speed 18 mph    
Visibility 9 miles    
Events Snow    
T = Trace of Precipitation, MM = Missing Value Source: NWS Daily Summary

Daily Weather History Graph

Daily Weather History Graph

Search for Another Location

Airport:

Trip Planner

Search our weather history database for the weather conditions in past years. The results will help you decide how hot, cold, wet, or windy it might be!

Date:

Astronomy

Feb. 07, 2013 Rise Set
Actual Time 7:47 AM CST 5:39 PM CST
Civil Twilight 7:14 AM CST 6:11 PM CST
Nautical Twilight 6:37 AM CST 6:48 PM CST
Astronomical Twilight 6:01 AM CST 7:24 PM CST
Moon 5:35 AM CST (2/7) 2:58 PM CST (2/7)
Length of Visible Light 10h 57m
Length of Day
9h 51m
Waning Crescent, 9% of the Moon is Illuminated
Feb 7
Waning Crescent
Feb 10
New
Feb 17
First Quarter
Feb 25
Full
Mar 4
Last Quarter

Hourly Weather History & Observations

Time (CST) Temp. Windchill Dew Point Humidity Pressure Visibility Wind Dir Wind Speed Gust Speed Precip Events Conditions
12:34 AM 6.8 °F -6.9 °F 3.2 °F 85% 30.14 in 10.0 mi North 9.2 mph - N/A   Scattered Clouds
12:53 AM 5.0 °F -8.1 °F 1.9 °F 87% 30.21 in 10.0 mi North 8.1 mph - N/A   Clear
1:53 AM 3.0 °F -12.5 °F -0.9 °F 84% 30.22 in 10.0 mi North 10.4 mph - N/A   Clear
2:53 AM 1.0 °F -10.3 °F -2.0 °F 87% 30.24 in 10.0 mi NNW 5.8 mph - N/A   Clear
3:53 AM -0.0 °F -15.3 °F -4.0 °F 83% 30.23 in 10.0 mi North 9.2 mph - N/A   Clear
4:53 AM -2.9 °F -19.8 °F -6.0 °F 87% 30.26 in 10.0 mi NNW 10.4 mph - N/A   Clear
5:53 AM -0.9 °F -18.3 °F -5.1 °F 83% 30.27 in 10.0 mi North 11.5 mph - N/A   Clear
6:41 AM -2.2 °F -18.0 °F -5.8 °F 85% 30.22 in 10.0 mi North 9.2 mph - N/A   Scattered Clouds
6:53 AM -2.0 °F -17.7 °F -5.1 °F 87% 30.29 in 10.0 mi North 9.2 mph - N/A   Mostly Cloudy
7:53 AM -2.0 °F -13.9 °F -6.0 °F 83% 30.31 in 10.0 mi North 5.8 mph - N/A   Overcast
8:31 AM -2.2 °F -14.2 °F -5.8 °F 85% 30.25 in 10.0 mi NNW 5.8 mph - N/A   Mostly Cloudy
8:53 AM -2.9 °F -13.3 °F -7.1 °F 82% 30.33 in 10.0 mi NNW 4.6 mph - N/A   Scattered Clouds
9:53 AM 1.0 °F -11.7 °F -4.0 °F 79% 30.34 in 10.0 mi North 6.9 mph - N/A   Mostly Cloudy
10:19 AM 1.4 °F -8.3 °F -2.2 °F 85% 30.27 in 10.0 mi North 4.6 mph - N/A   Mostly Cloudy
10:53 AM 3.0 °F -6.4 °F -0.9 °F 84% 30.33 in 10.0 mi North 4.6 mph - N/A   Mostly Cloudy
11:53 AM 5.0 °F -2.1 °F 1.0 °F 84% 30.36 in 10.0 mi NW 3.5 mph - N/A   Overcast
12:53 PM 7.0 °F -3.3 °F 1.0 °F 77% 30.35 in 10.0 mi NW 5.8 mph - 0.00 in Snow Light Snow
1:53 PM 9.0 °F -0.9 °F 3.0 °F 77% 30.34 in 9.0 mi North 5.8 mph - 0.00 in Snow Light Snow
2:53 PM 10.0 °F 1.8 °F 5.0 °F 80% 30.33 in 9.0 mi North 4.6 mph - 0.00 in Snow Light Snow
3:53 PM 10.0 °F 0.4 °F 5.0 °F 80% 30.33 in 9.0 mi North 5.8 mph - 0.00 in Snow Light Snow
4:08 PM 10.4 °F 0.8 °F 5.0 °F 79% 30.25 in 9.0 mi NNW 5.8 mph - 0.00 in Snow Light Snow
4:53 PM 10.0 °F 1.8 °F 6.1 °F 84% 30.33 in 9.0 mi NNW 4.6 mph - 0.00 in Snow Light Snow
5:19 PM 8.6 °F -1.3 °F 6.8 °F 92% 30.26 in 9.0 mi NNW 5.8 mph - 0.00 in   Overcast
5:53 PM 8.1 °F 1.4 °F 6.1 °F 92% 30.32 in 10.0 mi North 3.5 mph - 0.00 in   Overcast
6:37 PM 8.6 °F 2.0 °F 5.0 °F 85% 30.27 in 10.0 mi NNW 3.5 mph - N/A   Overcast
6:53 PM 8.1 °F - 5.0 °F 87% 30.34 in 10.0 mi Calm Calm - N/A   Overcast
7:53 PM 8.1 °F 1.4 °F 5.0 °F 87% 30.35 in 10.0 mi NNE 3.5 mph - N/A   Overcast
8:53 PM 9.0 °F - 5.0 °F 84% 30.35 in 10.0 mi Calm Calm - N/A   Overcast
9:53 PM 9.0 °F - 5.0 °F 84% 30.35 in 10.0 mi Calm Calm - N/A   Overcast
10:31 PM 8.6 °F 0.1 °F 6.8 °F 92% 30.27 in 8.0 mi SE 4.6 mph - N/A   Overcast
10:53 PM 9.0 °F -0.9 °F 7.0 °F 92% 30.34 in 8.0 mi SE 5.8 mph - N/A   Overcast
11:42 PM 10.4 °F 4.0 °F 8.6 °F 92% 30.27 in 1.8 mi South 3.5 mph - N/A   Overcast
11:53 PM 10.0 °F 1.8 °F 8.1 °F 92% 30.35 in 0.8 mi South 4.6 mph - N/A   Overcast